Regional Weather Roundup
Issued by NWS Sioux Falls, SD

Home | Current Version | Previous Version | Text Only | Print | Product List | Glossary On
Versions: 1 2 3 4 5 6 7 8 9 10 11 12 13 14 15 16 17 18 19 20 21 22 23 24 25 26 27 28 29 30 31 32 33 34 35 36 37 38 39 40 41 42 43 44 45 46 47 48 49 50
373
ASUS43 KFSD 270110
RWRFSD

WEATHER ROUNDUP FOR SE SOUTH DAKOTA/SW MINNESOTA/NW IOWA
NATIONAL WEATHER SERVICE SIOUX FALLS SD
800 PM CDT SAT MAY 26 2018

NOTE: "FAIR" INDICATES FEW OR NO CLOUDS BELOW 12,000 FEET WITH NO
SIGNIFICANT WEATHER AND OR OBSTRUCTIONS TO VISIBILITY.


SDZ038>040-050-052>070-270200-
SOUTHEAST SOUTH DAKOTA

CITY           SKY/WX    TMP DP  RH WIND       PRES   REMARKS
BROOKINGS      CLEAR     88  54  31 NE5       29.77R
CHAMBERLAIN    SUNNY     89  64  43 SE9       29.73S
HURON          CLEAR     90  62  39 CALM      29.72R
MADISON        FAIR      86  57  37 CALM      29.77S
MITCHELL       CLEAR     86  63  45 SE8       29.73R
SIOUX FALLS    CLEAR     89  58  34 CALM      29.75R
WINNER         FAIR      85  68  56 SE9       29.73S
YANKTON        CLEAR     93  55  27 NE5       29.73S
$$

MNZ071-072-080-081-089-090-097-098-270200-
SOUTHWEST MINNESOTA

CITY           SKY/WX    TMP DP  RH WIND       PRES   REMARKS
FAIRMONT       CLEAR     90  52  27 NW7       29.74R
JACKSON        CLEAR     84  55  37 VRB3      29.76S
LUVERNE        CLEAR     88  45  22 W6        29.76R
MARSHALL       CLEAR     89  52  28 N7        29.74R
MONTEVIDEO     CLEAR     91  48  22 NW3       29.72S
PIPESTONE      CLEAR     90  52  27 NW5       29.78R
REDWOOD FALLS  CLEAR     88  55  32 NW5       29.72R
TRACY          CLEAR     90  50  26 NW7       29.75R
WINDOM         CLEAR     84  52  32 N6        29.75R
WORTHINGTON    CLEAR     88  53  30 N7        29.77R
$$

IAZ001>003-012>014-020>022-031-032-NEZ013-014-SDZ071-270200-
NORTHWEST IOWA

CITY           SKY/WX    TMP DP  RH WIND       PRES   REMARKS
CHEROKEE       CLEAR     89  55  30 N3        29.75R
DENISON        CLEAR     90  63  40 CALM      29.76R
ESTHERVILLE    CLEAR     84  58  40 N7        29.74R
ORANGE CITY    CLEAR     91  52  25 N3        29.76R
SHELDON        CLEAR     93  50  22 W7        29.74S
SIOUX CITY     CLEAR     91  58  32 E3        29.73R
SPENCER        CLEAR     89  54  30 N7        29.75R
STORM LAKE     CLEAR     90  50  25 NW7       29.76R
$$

ABBREVIATIONS USED IN REMARKS
   TC - TEMPERATURE IN CELSIUS
  WCI - WIND CHILL INDEX
   HX - HEAT INDEX
  VSB - VISIBILITY





USA.gov is the U.S. government's official web portal to all federal, state and local government web resources and services.